Home   Weather   Ludwigsburg   Past weeks

Flag for Germany Past Weather in Ludwigsburg, Baden-Württemberg, Germany — Yesterday and Last 2 Weeks

Now
28 °F

Sunny.


Feels Like: 20 °F
Forecast: 10 / 24 °F
Wind: 8 mph from Northeast

Location: Stuttgart-Echterdingen

Current Time: Jan 19, 2017 at 4:07:36 pm

Latest Report: Jan 19, 2017 at 3:20 pm


Visibility: 10 mi

Pressure: 30.45 "Hg

Humidity: 64%

Dew Point: 18 °F

Location of LudwigsburgLocation

Past Weather in Ludwigsburg — Graph

°F

Ludwigsburg Temperature Yesterday

Maximum temperature yesterday: 28 °F (at 2:50 pm)
Minimum temperature yesterday: 19 °F (at 11:50 pm)
Average temperature yesterday: 24 °F

High & Low Weather Summary for the Past Weeks

 TemperatureHumidityPressure
High43 °F (Jan 13, 12:20 am)100% (Jan 6, 7:50 am)30.66 "Hg (Jan 6, 7:50 am)
Low7 °F (Jan 7, 2:50 am)59% (Jan 6, 1:20 pm)29.33 "Hg (Jan 13, 12:20 am)
Average28 °F83%30.17 "Hg
* Reported Jan 4 2:20 pm — Jan 19 2:50 pm, Ludwigsburg, Weather by CustomWeather, © 2017

Note: Actual official high and low records may vary slightly from our data, if they occured in-between our weather recording intervals... More about our weather records

Advertising

Ludwigsburg Weather History for the Previous 24 Hours

Scroll right to see more
 ConditionsComfort  
Time TempWeatherWind HumidityBarometerVisibility
2:50 pm
Thu, Jan 19
28 °FPassing clouds.7 mph64%30.45 "HgN/A
2:20 pm28 °FPassing clouds.7 mph64%30.45 "HgN/A
1:50 pm28 °FPassing clouds.8 mph64%30.45 "HgN/A
1:20 pm27 °FPassing clouds.7 mph64%30.48 "HgN/A
12:50 pm25 °FSunny.7 mph69%30.48 "Hg10 mi
12:20 pm25 °FPassing clouds.6 mph69%30.48 "HgN/A
11:50 am25 °FPassing clouds.7 mph69%30.48 "HgN/A
11:20 am23 °FPassing clouds.6 mph74%30.48 "HgN/A
10:50 am21 °FPassing clouds.5 mph80%30.48 "HgN/A
10:20 am21 °FPassing clouds.5 mph80%30.48 "HgN/A
9:50 am19 °FSunny.6 mph86%30.48 "Hg10 mi
9:20 am19 °FPassing clouds.5 mph79%30.48 "HgN/A
8:50 am18 °FClear.6 mph86%30.48 "Hg6 mi
8:20 am18 °FClear.6 mph86%30.48 "Hg6 mi
7:50 am18 °FPassing clouds.7 mph86%30.48 "HgN/A
7:20 am18 °FClear.8 mph86%30.48 "Hg10 mi
6:50 am18 °FPassing clouds.7 mph86%30.48 "HgN/A
6:20 am18 °FClear.7 mph86%30.48 "Hg10 mi
5:50 am18 °FClear.7 mph86%30.48 "Hg10 mi
5:20 am18 °FClear.5 mph86%30.48 "Hg10 mi
4:50 am18 °FPassing clouds.5 mph86%30.48 "HgN/A
4:20 am18 °FPassing clouds.2 mph86%30.48 "HgN/A
3:50 am18 °FPassing clouds.2 mph86%30.48 "HgN/A
3:20 am19 °FPassing clouds.5 mph79%30.48 "HgN/A
2:50 am19 °FPassing clouds.9 mph86%30.48 "HgN/A
2:20 am19 °FPassing clouds.8 mph79%30.48 "HgN/A
1:50 am19 °FPassing clouds.7 mph79%30.48 "HgN/A
1:20 am19 °FPassing clouds.7 mph86%30.48 "HgN/A
12:50 am19 °FPassing clouds.8 mph86%30.48 "HgN/A
12:20 am19 °FPassing clouds.6 mph79%30.48 "HgN/A
11:50 pm
Wed, Jan 18
19 °FPassing clouds.7 mph79%30.48 "HgN/A
11:20 pm21 °FPassing clouds.8 mph80%30.48 "HgN/A
10:50 pm21 °FPassing clouds.9 mph80%30.48 "HgN/A
10:20 pm23 °FPassing clouds.10 mph74%30.48 "HgN/A
9:50 pm23 °FPassing clouds.12 mph74%30.48 "HgN/A
9:20 pm23 °FPassing clouds.12 mph80%30.48 "HgN/A
8:50 pm25 °FPassing clouds.12 mph69%30.51 "HgN/A
8:20 pm25 °FPassing clouds.10 mph74%30.51 "HgN/A
7:50 pm25 °FPassing clouds.13 mph74%30.51 "HgN/A
7:20 pm25 °FPassing clouds.10 mph74%30.51 "HgN/A
6:50 pm25 °FPassing clouds.9 mph74%30.51 "HgN/A
6:20 pm23 °FPassing clouds.9 mph74%30.51 "HgN/A
5:50 pm23 °FPassing clouds.10 mph74%30.51 "HgN/A
5:20 pm23 °FPassing clouds.12 mph74%30.51 "HgN/A
4:50 pm25 °FScattered clouds.13 mph69%30.51 "HgN/A
4:20 pm25 °FScattered clouds.10 mph69%30.51 "HgN/A
Weather by CustomWeather, © 2017

See weather overviewHow to use our weather pages